GW3122 Weather Reports


time (UTC)temp
F
wind
direction
speed
knots
gust
knots
rain 1hr
in
rain 24hr
in
rain mn
in
humidity
%
barometer
mb
20260502230006 58 161 4.3 7.8 0.00 0.00 0.00 51 1017.8
20260502223115 59 176 2.6 5.2 0.00 0.00 0.00 46 1017.8
20260502221617 60 168 2.6 4.3 0.00 0.00 0.00 46 1017.9
20260502220058 60 167 1.7 5.2 0.00 0.00 0.00 46 1017.9
20260502214546 61 171 3.5 6.1 0.00 0.00 0.00 44 1017.8
20260502213046 61 162 3.5 6.1 0.00 0.00 0.00 44 1018.0
20260502211541 61 175 2.6 5.2 0.00 0.00 0.00 45 1018.1
20260502210017 61 157 2.6 5.2 0.00 0.00 0.00 45 1018.3
20260502204523 62 146 2.6 7.0 0.00 0.00 0.00 44 1018.4
20260502203018 62 150 1.7 5.2 0.00 0.00 0.00 43 1018.4
20260502201517 63 148 2.6 5.2 0.00 0.00 0.00 42 1018.4
20260502200059 63 152 2.6 5.2 0.00 0.00 0.00 41 1018.4
20260502194555 64 184 1.7 3.5 0.00 0.00 0.00 40 1018.4
20260502193050 64 163 1.7 5.2 0.00 0.00 0.00 40 1018.4
20260502191524 64 158 1.7 2.6 0.00 0.00 0.00 39 1018.6
20260502190006 65 165 0.9 2.6 0.00 0.00 0.00 38 1018.6
20260502184508 65 146 1.7 3.5 0.00 0.00 0.00 38 1018.3
20260502183007 66 169 1.7 4.3 0.00 0.00 0.00 38 1018.3
20260502181508 66 159 1.7 5.2 0.00 0.00 0.00 39 1018.2
20260502163025 72 175 1.7 6.1 0.00 0.00 0.00 33 1018.9
20260502161505 73 130 3.5 7.0 0.00 0.00 0.00 32 1019.2
20260502151546 74 98 1.7 7.0 0.00 0.00 0.00 30 1019.8
20260502123001 73 111 1.7 8.7 0.00 0.00 0.00 30 1022.1
20260502121602 73 173 1.7 6.1 0.00 0.00 0.00 29 1022.2
20260502114534 72 140 4.3 7.0 0.00 0.00 0.00 32 1022.6
20260502113036 72 332 1.7 7.0 0.00 0.00 0.00 31 1022.7
20260502111537 72 89 2.6 10.4 0.00 0.00 0.00 32 1022.9
20260502110010 72 143 3.5 7.0 0.00 0.00 0.00 35 1023.0
20260502104511 72 136 2.6 7.8 0.00 0.00 0.00 33 1023.2
20260502103001 72 265 2.6 7.0 0.00 0.00 0.00 34 1023.3
20260502101605 71 191 4.3 7.0 0.00 0.00 0.00 33 1023.6
20260502091511 70 225 3.5 8.7 0.00 0.00 0.00 34 1024.1
20260502071532 67 227 1.7 4.3 0.00 0.00 0.00 45 1024.4
20260502070002 66 237 1.7 5.2 0.00 0.00 0.00 43 1024.7
20260502064603 66 157 0.9 5.2 0.00 0.00 0.00 45 1024.4
20260502063109 65 215 0.9 2.6 0.00 0.00 0.00 49 1024.5
20260502061548 63 221 0.9 3.5 0.00 0.00 0.00 49 1024.5
20260502060018 63 195 0.9 2.6 0.00 0.00 0.00 50 1024.5
20260502054509 61 231 1.7 4.3 0.00 0.00 0.00 50 1024.4
20260502053004 60 234 0.9 4.3 0.00 0.00 0.00 54 1024.6
20260502051605 59 236 0.9 3.5 0.00 0.00 0.00 54 1024.4
20260502050043 58 257 0.9 3.5 0.00 0.00 0.00 56 1024.4
20260502044542 57 219 0.0 2.6 0.00 0.00 0.00 57 1024.3
20260502043040 55 241 0.0 2.6 0.00 0.00 0.00 58 1024.3
20260502041536 53 242 1.7 3.5 0.00 0.00 0.00 61 1024.3
20260502040014 51 232 0.9 2.6 0.00 0.00 0.00 64 1024.2
20260502034512 52 182 0.0 3.5 0.00 0.00 0.00 64 1024.4
20260502033102 52 275 0.0 3.5 0.00 0.00 0.00 62 1024.3
20260502031556 53 308 0.9 2.6 0.00 0.00 0.00 59 1024.5
20260502030042 54 227 0.9 3.5 0.00 0.00 0.00 58 1024.2
20260502024525 54 234 1.7 2.6 0.00 0.00 0.00 57 1024.3
20260502023030 55 212 0.9 2.6 0.00 0.00 0.00 56 1024.4